GW3497 Weather Reports


time (UTC)temp
C
wind
direction
speed
KPH
gust
KPH
rain 1hr
cm
rain 24hr
cm
rain mn
cm
humidity
%
barometer
mb
20260506072902 10 42 6.4 14.5 0.00 0.00 0.00 76 1013.3
20260506072659 9 334 11.3 17.7 0.00 0.00 0.00 81 1013.3
20260506071903 9 28 8.0 17.7 0.00 0.00 0.00 81 1013.2
20260506071403 -17 63 8.0 14.5 0.00 0.00 0.00 1013.2
20260506070903 -17 345 6.4 8.0 0.00 0.00 0.00 1013.2
20260506070403 -17 345 6.4 14.5 0.00 0.00 0.00 1013.2
20260506061858 7 0 8.0 17.7 0.00 0.00 0.00 84 1013.0
20260506061356 7 58 8.0 14.5 0.00 0.00 0.00 85 1013.0
20260506060855 7 14 4.8 14.5 0.00 0.00 0.00 84 1013.0
20260506060355 7 0 4.8 11.3 0.00 0.00 0.00 85 1013.0
20260506051352 6 59 6.4 19.3 0.00 0.00 0.00 86 1012.7
20260506050852 6 47 4.8 17.7 0.00 0.00 0.00 86 1012.7
20260506050351 6 25 6.4 17.7 0.00 0.00 0.00 86 1012.8
20260506044852 6 0 6.4 16.1 0.00 0.00 0.00 86 1012.7
20260506044349 6 0 4.8 16.1 0.00 0.00 0.00 86 1012.7
20260506043850 6 344 4.8 11.3 0.00 0.00 0.00 85 1012.8
20260506043350 6 0 1.6 9.7 0.00 0.00 0.00 85 1012.7
20260506042851 6 78 3.2 9.7 0.00 0.00 0.00 85 1012.9
20260506042349 6 3 3.2 6.4 0.00 0.00 0.00 85 1012.8
20260506041854 6 28 1.6 9.7 0.00 0.00 0.00 85 1012.9
20260506041656 7 55 3.2 16.1 0.00 0.00 0.00 85 1012.9
20260506040852 7 32 4.8 16.1 0.00 0.00 0.00 85 1012.9
20260506040349 7 0 1.6 8.0 0.00 0.00 0.00 85 1012.9
20260506040233 7 52 3.2 14.5 0.00 0.00 0.00 85 1012.8
20260506035349 7 56 3.2 14.5 0.00 0.00 0.00 85 1012.8
20260506035033 7 42 6.4 9.7 0.00 0.00 0.00 85 1012.9
20260506034805 7 65 3.2 11.3 0.00 0.00 0.00 85 1012.8
20260506033349 7 49 3.2 11.3 0.00 0.00 0.00 84 1012.9
20260506032848 7 31 3.2 9.7 0.00 0.00 0.00 85 1012.9
20260506032348 7 49 3.2 11.3 0.00 0.00 0.00 84 1012.8
20260506031848 7 14 6.4 11.3 0.00 0.00 0.00 85 1012.8
20260506031348 7 0 6.4 14.5 0.00 0.00 0.00 85 1012.9
20260506030848 7 47 3.2 14.5 0.00 0.00 0.00 85 1012.9
20260506030654 7 56 1.6 11.3 0.00 0.00 0.00 84 1013.0
20260506025848 7 47 3.2 8.0 0.00 0.00 0.00 84 1013.0
20260506025349 7 3 3.2 11.3 0.00 0.00 0.00 84 1013.0
20260506024848 7 41 3.2 11.3 0.00 0.00 0.00 84 1013.0
20260506024348 7 0 4.8 9.7 0.00 0.00 0.00 84 1013.0
20260506023850 7 61 3.2 9.7 0.00 0.00 0.00 84 1013.0
20260506023349 7 45 3.2 17.7 0.00 0.00 0.00 84 1013.1
20260506023316 7 55 4.8 11.3 0.00 0.00 0.00 84 1013.1
20260506023312 7 58 3.2 17.7 0.00 0.00 0.00 84 1013.1
20260506021848 7 56 1.6 8.0 0.00 0.00 0.00 84 1013.2
20260506021350 7 0 4.8 14.5 0.00 0.00 0.00 84 1013.1
20260506020849 7 62 4.8 17.7 0.00 0.00 0.00 84 1013.1
20260506020348 7 25 8.0 17.7 0.00 0.00 0.00 83 1013.1
20260506015850 7 56 8.0 19.3 0.00 0.00 0.00 84 1013.1
20260506015349 7 23 6.4 19.3 0.00 0.00 0.00 83 1013.1
20260506015211 7 79 6.4 11.3 0.00 0.00 0.00 84 1013.1
20260506014348 8 63 6.4 16.1 0.00 0.00 0.00 84 1013.2
20260506013849 8 62 6.4 16.1 0.00 0.00 0.00 84 1013.1
20260506013346 8 65 6.4 14.5 0.00 0.00 0.00 84 1013.2
20260506012849 8 52 4.8 16.1 0.00 0.00 0.00 84 1013.3
20260506012653 8 41 8.0 16.1 0.00 0.00 0.00 84 1013.2
20260506011848 8 353 6.4 11.3 0.00 0.00 0.00 84 1013.2
20260506011351 8 63 6.4 11.3 0.00 0.00 0.00 85 1013.4
20260506010849 8 63 4.8 9.7 0.00 0.00 0.00 85 1013.3
20260506010349 8 23 4.8 14.5 0.00 0.00 0.00 85 1013.4
20260506005848 8 59 4.8 14.5 0.00 0.00 0.00 85 1013.3
20260506005345 8 58 8.0 14.5 0.00 0.00 0.00 85 1013.2
20260506004848 8 34 3.2 16.1 0.00 0.00 0.00 85 1013.2
20260506004347 8 38 8.0 16.1 0.00 0.00 0.00 84 1013.2
20260506003847 8 56 8.0 16.1 0.00 0.00 0.00 84 1013.2
20260506003347 8 11 4.8 22.5 0.00 0.00 0.00 84 1013.2
20260506003216 8 52 8.0 22.5 0.00 0.00 0.00 83 1013.2
20260506002346 8 58 6.4 17.7 0.00 0.00 0.00 83 1013.2
20260506001848 8 39 8.0 17.7 0.00 0.00 0.00 83 1013.2
20260506001345 8 51 9.7 17.7 0.00 0.00 0.00 84 1013.3
20260506000845 8 51 9.7 17.7 0.00 0.00 0.00 84 1013.3
20260506000341 8 71 9.7 16.1 0.00 0.00 0.00 84 1013.3
20260505235839 8 49 8.0 14.5 0.00 0.00 0.00 84 1013.2
20260505235339 8 32 8.0 14.5 0.00 0.00 0.00 85 1013.3
20260505234841 9 56 6.4 16.1 0.00 0.00 0.00 84 1013.4
20260505234339 9 54 4.8 16.1 0.00 0.00 0.00 85 1013.4
20260505233838 9 58 3.2 14.5 0.00 0.00 0.00 85 1013.4
20260505233339 9 62 6.4 14.5 0.00 0.00 0.00 85 1013.4
20260505232838 9 94 6.4 11.3 0.00 0.00 0.00 85 1013.3
20260505232338 9 34 4.8 14.5 0.00 0.00 0.00 85 1013.3
20260505231841 9 59 6.4 14.5 0.00 0.00 0.00 85 1013.3
20260505231645 9 351 4.8 17.7 0.00 0.00 0.00 85 1013.5
20260505230841 9 54 8.0 17.7 0.00 0.00 0.00 84 1013.5
20260505230353 9 44 4.8 16.1 0.00 0.00 0.00 84 1013.5
20260505225837 9 41 9.7 16.1 0.00 0.00 0.00 84 1013.5
20260505225340 9 78 6.4 16.1 0.00 0.00 0.00 84 1013.4
20260505225210 9 61 6.4 16.1 0.00 0.00 0.00 84 1013.4
20260505224337 9 44 8.0 17.7 0.00 0.00 0.00 84 1013.5
20260505223835 9 49 8.0 17.7 0.00 0.00 0.00 84 1013.4
20260505223649 9 48 8.0 17.7 0.00 0.00 0.00 84 1013.4
20260505222834 9 11 6.4 16.1 0.00 0.00 0.00 83 1013.5
20260505222335 9 48 8.0 20.9 0.00 0.00 0.00 83 1013.5
20260505221836 9 18 9.7 20.9 0.00 0.00 0.00 83 1013.4
20260505221335 9 44 11.3 22.5 0.00 0.00 0.00 82 1013.5
20260505220833 10 63 8.0 22.5 0.00 0.00 0.00 82 1013.5
20260505220651 10 39 9.7 19.3 0.00 0.00 0.00 82 1013.5
20260505220231 10 58 6.4 19.3 0.00 0.00 0.00 82 1013.5
20260505215331 10 56 9.7 20.9 0.00 0.00 0.00 81 1013.4
20260505214833 10 0 9.7 20.9 0.00 0.00 0.00 81 1013.3
20260505214333 10 47 8.0 16.1 0.00 0.00 0.00 81 1013.3
20260505213834 10 55 9.7 20.9 0.00 0.00 0.00 81 1013.3
20260505213332 10 58 9.7 20.9 0.00 0.00 0.00 81 1013.3
20260505212833 10 54 6.4 20.9 0.00 0.00 0.00 80 1013.3
20260505212331 10 354 11.3 20.9 0.00 0.00 0.00 80 1013.3
20260505211830 10 52 11.3 20.9 0.00 0.00 0.00 80 1013.3
20260505211329 10 32 8.0 19.3 0.00 0.00 0.00 80 1013.2
20260505210830 10 49 11.3 19.3 0.00 0.00 0.00 80 1013.3
20260505210330 10 54 8.0 20.9 0.00 0.00 0.00 80 1013.1
20260505205831 10 54 11.3 20.9 0.00 0.00 0.00 79 1013.2
20260505205330 10 38 9.7 20.9 0.00 0.00 0.00 79 1013.2
20260505204948 10 32 9.7 22.5 0.00 0.00 0.00 78 1013.0
20260505204919 10 62 11.3 20.9 0.00 0.00 0.00 79 1013.1
20260505203826 11 47 16.1 22.5 0.00 0.00 0.00 78 1013.0
20260505203326 11 62 12.9 22.5 0.00 0.00 0.00 78 1013.0
20260505202826 11 62 8.0 24.1 0.00 0.00 0.00 78 1013.0
20260505202324 11 79 9.7 24.1 0.00 0.00 0.00 77 1012.9
20260505201824 11 59 12.9 24.1 0.00 0.00 0.00 77 1012.9
20260505201645 11 31 6.4 22.5 0.00 0.00 0.00 76 1012.9
20260505200826 11 55 9.7 22.5 0.00 0.00 0.00 76 1012.9
20260505200322 11 54 8.0 19.3 0.00 0.00 0.00 76 1012.8
20260505195828 11 56 9.7 17.7 0.00 0.00 0.00 75 1012.7
20260505195323 11 65 4.8 16.1 0.00 0.00 0.00 75 1012.5
20260505194822 11 30 6.4 14.5 0.00 0.00 0.00 75 1012.6
20260505194323 11 39 6.4 19.3 0.00 0.00 0.00 74 1012.5
20260505193824 11 39 8.0 22.5 0.00 0.00 0.00 74 1012.4
20260505193522 12 63 8.0 19.3 0.00 0.00 0.00 73 1012.3
20260505193435 12 55 6.4 22.5 0.00 0.00 0.00 73 1012.4
20260505192321 12 41 11.3 22.5 0.00 0.00 0.00 73 1012.2
20260505191820 12 44 12.9 22.5 0.00 0.00 0.00 73 1012.2
20260505191322 12 41 11.3 24.1 0.00 0.00 0.00 73 1012.1
20260505190823 12 42 11.3 24.1 0.00 0.00 0.00 74 1012.1
20260505190320 12 49 11.3 20.9 0.00 0.00 0.00 74 1012.0
20260505185822 12 56 9.7 22.5 0.00 0.00 0.00 74 1012.0
20260505185320 12 61 9.7 22.5 0.00 0.00 0.00 74 1012.0
20260505184820 12 62 11.3 20.9 0.00 0.00 0.00 74 1012.0
20260505184320 12 42 9.7 20.9 0.00 0.00 0.00 74 1012.0
20260505183826 12 51 11.3 22.5 0.00 0.00 0.00 75 1011.9
20260505183326 12 56 14.5 22.5 0.00 0.00 0.00 74 1011.9
20260505182826 12 58 9.7 17.7 0.00 0.00 0.00 75 1011.8
20260505182326 13 56 11.3 20.9 0.00 0.00 0.00 75 1011.8
20260505181818 13 34 8.0 20.9 0.00 0.00 0.00 74 1011.8
20260505181319 13 59 9.7 19.3 0.00 0.00 0.00 74 1011.7
20260505181202 13 71 8.0 19.3 0.00 0.00 0.00 74 1011.8
20260505180313 13 65 9.7 16.1 0.00 0.00 0.00 74 1011.7
20260505175811 13 59 4.8 14.5 0.00 0.00 0.00 74 1011.8
20260505175306 13 51 8.0 14.5 0.00 0.00 0.00 73 1011.7
20260505174809 13 51 4.8 14.5 0.00 0.00 0.00 73 1011.7
20260505174303 13 48 6.4 14.5 0.00 0.00 0.00 73 1011.7
20260505173802 13 51 4.8 11.3 0.00 0.00 0.00 71 1011.8
20260505173300 13 38 6.4 11.3 0.00 0.00 0.00 71 1011.7
20260505173159 13 65 4.8 8.0 0.00 0.00 0.00 70 1011.7
20260505172308 14 27 3.2 6.4 0.00 0.00 0.00 70 1011.6
20260505171804 14 45 3.2 3.2 0.00 0.00 0.00 70 1011.6
20260505171259 14 27 0.0 3.2 0.00 0.00 0.00 68 1011.7
20260505170758 14 28 3.2 3.2 0.00 0.00 0.00 68 1011.7
20260505170309 -17 13 0.0 1.6 0.00 0.00 0.00 1011.7
20260505165757 14 68 1.6 3.2 0.00 0.00 0.00 68 1011.7
20260505165246 14 68 1.6 6.4 0.00 0.00 0.00 68 1011.7
20260505164743 14 73 3.2 6.4 0.00 0.00 0.00 68 1011.7
20260505164539 14 54 3.2 9.7 0.00 0.00 0.00 68 1011.7
20260505163742 15 52 6.4 9.7 0.00 0.00 0.00 67 1011.6
20260505163242 15 45 4.8 9.7 0.00 0.00 0.00 68 1011.7
20260505162739 15 62 6.4 11.3 0.00 0.00 0.00 68 1011.8
20260505162241 15 35 6.4 11.3 0.00 0.00 0.00 67 1011.7
20260505161739 15 48 6.4 11.3 0.00 0.00 0.00 67 1011.6
20260505161242 15 51 3.2 9.7 0.00 0.00 0.00 67 1011.6
20260505161054 15 59 6.4 8.0 0.00 0.00 0.00 67 1011.6
20260505160239 15 28 6.4 8.0 0.00 0.00 0.00 68 1011.6
20260505153234 15 27 4.8 6.4 0.00 0.00 0.00 65 1011.7
20260505153101 15 32 1.6 4.8 0.00 0.00 0.00 65 1011.8
20260505152232 15 48 3.2 6.4 0.00 0.00 0.00 65 1011.8
20260505151732 -17 42 1.6 6.4 0.00 0.00 0.00 1011.8
20260505151535 -17 354 3.2 4.8 0.00 0.00 0.00 1011.8
20260505150739 16 354 3.2 4.8 0.00 0.00 0.00 62 1011.8
20260505150249 16 18 3.2 6.4 0.00 0.00 0.00 62 1011.8
20260505140247 17 87 3.2 4.8 0.00 0.00 0.00 63 1012.1
20260505140235 17 87 1.6 4.8 0.00 0.00 0.00 63 1012.0
20260505130229 -17 58 3.2 11.3 0.00 0.00 0.00 1012.3
20260505124730 -17 113 8.0 9.7 0.00 0.00 0.00 1012.3
20260505124533 18 0.0 0.0 0.00 0.00 0.00 63 1012.3
20260505123729 18 0.0 0.0 0.00 0.00 0.00 63 1012.3
20260505123230 17 80 1.6 1.6 0.00 0.00 0.00 67 1012.4
20260505122731 17 80 1.6 3.2 0.00 0.00 0.00 67 1012.4
20260505122228 17 104 3.2 11.3 0.00 0.00 0.00 67 1012.4
20260505121729 16 109 6.4 11.3 0.00 0.00 0.00 67 1012.5
20260505121225 16 65 4.8 9.7 0.00 0.00 0.00 69 1012.4
20260505121045 16 51 9.7 9.7 0.00 0.00 0.00 69 1012.3
20260505120418 16 32 3.2 4.8 0.00 0.00 0.00 68 1012.3
20260505120343 16 54 4.8 6.4 0.00 0.00 0.00 68 1012.3
20260505115224 -17 102 4.8 4.8 0.00 0.00 0.00 1012.3
20260505114716 16 102 4.8 4.8 0.00 0.00 0.00 68 1012.4
20260505114518 -17 32 3.2 3.2 0.00 0.00 0.00 1012.5
20260505113715 -17 353 3.2 4.8 0.00 0.00 0.00 1012.5
20260505113213 16 355 4.8 101.4 0.00 0.00 0.00 71 1012.5
20260505112712 16 37 9.7 101.4 0.00 0.00 0.00 71 1012.5
20260505112212 -17 78 4.8 6.4 0.00 0.00 0.00 1012.6
20260505112056 16 321 6.4 6.4 0.00 0.00 0.00 71 1012.6
20260505111206 16 47 8.0 8.0 0.00 0.00 0.00 71 1012.6
20260505110706 16 47 8.0 8.0 0.00 0.00 0.00 71 1012.6
20260505110202 16 337 8.0 9.7 0.00 0.00 0.00 71 1012.8
20260505102203 15 71 4.8 4.8 0.00 0.00 0.00 69 1012.9
20260505101701 15 35 6.4 8.0 0.00 0.00 0.00 77 1012.9
20260505101201 15 86 6.4 8.0 0.00 0.00 0.00 77 1012.9
20260505100701 15 79 8.0 8.0 0.00 0.00 0.00 77 1012.9
20260505100201 15 35 8.0 8.0 0.00 0.00 0.00 77 1012.9
20260505095707 -17 90 6.4 6.4 0.00 0.00 0.00 1013.0
20260505095206 15 35 4.8 4.8 0.00 0.00 0.00 77 1013.0
20260505094949 15 4 3.2 3.2 0.00 0.00 0.00 77 1013.0
20260505094448 -17 51 3.2 3.2 0.00 0.00 0.00 1013.1
20260505093658 -17 0.0 0.0 0.00 0.00 0.00 1013.2
20260505093159 -17 0.0 0.0 0.00 0.00 0.00 1013.3
20260505092701 -17 0.0 0.0 0.00 0.00 0.00 1013.2
20260505092156 -17 0.0 0.0 0.00 0.00 0.00 1013.1
20260505091947 13 0.0 0.0 0.00 0.00 0.00 82 1013.2
20260505091157 13 0.0 0.0 0.00 0.00 0.00 82 1013.3
20260505090654 13 0.0 0.0 0.00 0.00 0.00 86 1013.3
20260505090143 13 0.0 0.0 0.00 0.00 0.00 86 1013.2
20260505085642 13 0.0 0.0 0.00 0.00 0.00 86 1013.4
20260505085143 12 0.0 0.0 0.00 0.00 0.00 86 1013.3
20260505084644 12 0.0 0.0 0.00 0.00 0.00 88 1013.3
20260505084143 11 0.0 0.0 0.00 0.00 0.00 90 1013.3
20260505083644 11 0.0 0.0 0.00 0.00 0.00 90 1013.3
20260505083143 11 0.0 0.0 0.00 0.00 0.00 90 1013.3
20260505082642 11 0.0 0.0 0.00 0.00 0.00 90 1013.2
20260505082141 11 0.0 0.0 0.00 0.00 0.00 90 1013.2
20260505081641 11 0.0 0.0 0.00 0.00 0.00 90 1013.4
20260505081139 11 0.0 0.0 0.00 0.00 0.00 90 1013.4
20260505080923 11 0.0 0.0 0.00 0.00 0.00 91 1013.4
20260505080138 11 0.0 0.0 0.00 0.00 0.00 91 1013.3
20260505075632 10 0.0 0.0 0.00 0.00 0.00 91 1013.3
20260505075136 10 0.0 0.0 0.00 0.00 0.00 91 1013.3
20260505074914 10 0.0 0.0 0.00 0.00 0.00 91 1013.3
20260505074416 10 0.0 0.0 0.00 0.00 0.00 92 1013.3
20260505073631 10 0.0 0.0 0.00 0.00 0.00 92 1013.3